owner,sensor,date,latitude,longitude,vertical_datum,direction_of_sea_water_velocity,sea_water_speed,upward_sea_water_velocity,qcFlag 
ADCP,ioos:station:wmo:42388:1,2019-02-05T15:02:00Z,27.7300,-91.1090,34.1,100.0,2.2,-0.1,'11133222,11111222,11144222' 
ADCP,ioos:station:wmo:42388:1,2019-02-05T15:02:00Z,27.7300,-91.1090,322.1,259.0,48.0,-95.8,'11111222,11111222,99999999' 
ADCP,ioos:station:wmo:42388:1,2019-02-05T15:02:00Z,27.7300,-91.1090,370.1,277.0,37.5,-46.3,'11111222,11111222,11144222' 
ADCP,ioos:station:wmo:42388:1,2019-02-05T15:02:00Z,27.7300,-91.1090,386.1,75.0,157.0,-60.6,'11133222,11111222,99999999' 
ADCP,ioos:station:wmo:42388:1,2019-02-05T15:02:00Z,27.7300,-91.1090,418.1,83.0,58.3,-75.6,'11111222,11111222,99999999' 
ADCP,ioos:station:wmo:42388:1,2019-02-05T15:02:00Z,27.7300,-91.1090,466.1,255.0,37.0,-71.4,'11111222,11111222,99999999' 
ADCP,ioos:station:wmo:42388:1,2019-02-05T15:02:00Z,27.7300,-91.1090,498.1,312.0,29.5,-36.2,'11111222,11111222,11144222' 
ADCP,ioos:station:wmo:42388:1,2019-02-05T15:02:00Z,27.7300,-91.1090,546.1,73.0,84.6,-38.2,'11111222,11111222,11144222' 
ADCP,ioos:station:wmo:42388:1,2019-02-05T15:02:00Z,27.7300,-91.1090,562.1,124.0,55.6,-41.1,'11111222,11111222,11144222' 
ADCP,ioos:station:wmo:42388:1,2019-02-05T15:02:00Z,27.7300,-91.1090,626.1,104.0,18.1,-74.7,'11111222,11111222,99999999' 
ADCP,ioos:station:wmo:42388:1,2019-02-05T15:02:00Z,27.7300,-91.1090,642.1,259.0,32.7,-111.7,'11111222,11111222,99999999' 
ADCP,ioos:station:wmo:42388:1,2019-02-05T15:02:00Z,27.7300,-91.1090,674.1,358.0,35.0,-32.4,'11111222,11111222,11144222' 
ADCP,ioos:station:wmo:42388:1,2019-02-05T15:02:00Z,27.7300,-91.1090,834.1,74.0,47.7,-67.1,'11111222,11111222,99999999' 
ADCP,ioos:station:wmo:42388:1,2019-02-05T15:02:00Z,27.7300,-91.1090,850.1,44.0,71.3,-74.4,'11111222,11111222,99999999' 
ADCP,ioos:station:wmo:42388:1,2019-02-05T15:02:00Z,27.7300,-91.1090,914.1,264.0,123.2,-86.0,'11111222,11111222,99999999' 
ADCP,ioos:station:wmo:42388:1,2019-02-05T15:12:00Z,27.7300,-91.1090,34.1,58.0,9.3,-0.6,'11133222,11111222,11144222' 
ADCP,ioos:station:wmo:42388:1,2019-02-05T15:22:00Z,27.7300,-91.1090,34.1,33.0,10.6,-2.4,'11111222,11111222,11144222' 
ADCP,ioos:station:wmo:42388:1,2019-02-05T15:32:00Z,27.7300,-91.1090,34.1,78.0,6.2,-0.7,'11133222,11111222,11144222' 
ADCP,ioos:station:wmo:42388:1,2019-02-05T15:42:00Z,27.7300,-91.1090,34.1,50.0,8.8,-1.0,'11133222,11111222,11144222' 
ADCP,ioos:station:wmo:42388:1,2019-02-05T15:52:00Z,27.7300,-91.1090,34.1,134.0,6.4,1.1,'11133222,11111222,11111222' 
ADCP,ioos:station:wmo:42388:1,2019-02-05T16:02:00Z,27.7300,-91.1090,34.2,188.0,33.5,8.0,'11111222,11111222,11111222' 
ADCP,ioos:station:wmo:42388:1,2019-02-05T16:12:00Z,27.7300,-91.1090,34.2,199.0,28.3,6.3,'11111222,11111222,11111222' 
ADCP,ioos:station:wmo:42388:1,2019-02-05T16:22:00Z,27.7300,-91.1090,34.4,203.0,51.8,10.0,'11111222,11111222,11111222' 
ADCP,ioos:station:wmo:42388:1,2019-02-05T16:32:00Z,27.7300,-91.1090,34.4,205.0,110.7,14.4,'11111222,11111222,11111222' 
ADCP,ioos:station:wmo:42388:1,2019-02-05T16:42:00Z,27.7300,-91.1090,34.3,185.0,55.4,12.1,'11111222,11111222,11111222' 
ADCP,ioos:station:wmo:42388:1,2019-02-05T16:52:00Z,27.7300,-91.1090,34.1,198.0,71.4,7.9,'11111222,11111222,11111222' 
ADCP,ioos:station:wmo:42388:1,2019-02-05T17:02:00Z,27.7300,-91.1090,34.2,193.0,39.7,5.0,'11111222,11111222,11111222' 
ADCP,ioos:station:wmo:42388:1,2019-02-05T17:12:00Z,27.7300,-91.1090,34.2,193.0,117.4,17.9,'11111222,11111222,11111222' 
ADCP,ioos:station:wmo:42388:1,2019-02-05T17:22:00Z,27.7300,-91.1090,34.2,176.0,146.2,40.4,'11111222,11111222,11111222' 
ADCP,ioos:station:wmo:42388:1,2019-02-05T17:32:00Z,27.7300,-91.1090,34.1,172.0,188.2,55.9,'11144222,11111222,11133222' 
ADCP,ioos:station:wmo:42388:1,2019-02-05T17:42:00Z,27.7300,-91.1090,34.1,173.0,153.5,45.2,'11133222,11111222,11111222' 
ADCP,ioos:station:wmo:42388:1,2019-02-05T17:52:00Z,27.7300,-91.1090,34.0,170.0,151.5,48.4,'11133222,11111222,11111222' 
ADCP,ioos:station:wmo:42388:1,2019-02-05T18:02:00Z,27.7300,-91.1090,34.0,171.0,145.7,44.1,'11111222,11111222,11111222' 
ADCP,ioos:station:wmo:42388:1,2019-02-05T18:12:00Z,27.7300,-91.1090,34.1,170.0,174.4,55.1,'11133222,11111222,11133222' 
ADCP,ioos:station:wmo:42388:1,2019-02-05T18:22:00Z,27.7300,-91.1090,34.1,171.0,172.1,54.6,'11133222,11111222,11133222' 
ADCP,ioos:station:wmo:42388:1,2019-02-05T18:32:00Z,27.7300,-91.1090,34.0,172.0,166.6,52.9,'11133222,11111222,11133222' 
ADCP,ioos:station:wmo:42388:1,2019-02-05T18:42:00Z,27.7300,-91.1090,33.9,174.0,87.5,28.8,'11111222,11111222,11111222' 
ADCP,ioos:station:wmo:42388:1,2019-02-05T18:42:00Z,27.7300,-91.1090,49.9,193.0,21.6,53.4,'11111222,11111222,11133222' 
ADCP,ioos:station:wmo:42388:1,2019-02-05T18:52:00Z,27.7300,-91.1090,34.0,177.0,101.5,45.2,'11111222,11111222,11111222' 
ADCP,ioos:station:wmo:42388:1,2019-02-05T18:52:00Z,27.7300,-91.1090,50.0,210.0,22.1,71.3,'11111222,11111222,11133222' 
ADCP,ioos:station:wmo:42388:1,2019-02-05T19:02:00Z,27.7300,-91.1090,34.0,178.0,67.5,29.7,'11111222,11111222,11111222' 
ADCP,ioos:station:wmo:42388:1,2019-02-05T19:02:00Z,27.7300,-91.1090,50.0,257.0,38.2,34.5,'11111222,11111222,11111222' 
ADCP,ioos:station:wmo:42388:1,2019-02-05T19:12:00Z,27.7300,-91.1090,34.1,172.0,51.3,16.3,'11111222,11111222,11111222' 
ADCP,ioos:station:wmo:42388:1,2019-02-05T19:22:00Z,27.7300,-91.1090,34.1,167.0,29.6,10.0,'11111222,11111222,11111222' 
ADCP,ioos:station:wmo:42388:1,2019-02-05T19:32:00Z,27.7300,-91.1090,34.1,162.0,58.7,24.8,'11111222,11111222,11111222' 
ADCP,ioos:station:wmo:42388:1,2019-02-05T19:42:00Z,27.7300,-91.1090,34.0,157.0,27.3,12.1,'11111222,11111222,11111222' 
ADCP,ioos:station:wmo:42388:1,2019-02-05T19:52:00Z,27.7300,-91.1090,34.0,164.0,13.2,6.3,'11111222,11111222,11111222' 
ADCP,ioos:station:wmo:42388:1,2019-02-05T20:02:00Z,27.7300,-91.1090,34.0,222.0,7.3,6.5,'11133222,11111222,11111222' 
ADCP,ioos:station:wmo:42388:1,2019-02-05T20:12:00Z,27.7300,-91.1090,33.9,150.0,23.6,12.9,'11111222,11111222,11111222' 
ADCP,ioos:station:wmo:42388:1,2019-02-05T20:22:00Z,27.7300,-91.1090,34.0,148.0,22.2,11.3,'11111222,11111222,11111222' 
ADCP,ioos:station:wmo:42388:1,2019-02-05T20:32:00Z,27.7300,-91.1090,34.0,147.0,10.8,5.0,'11111222,11111222,11111222' 
ADCP,ioos:station:wmo:42388:1,2019-02-05T20:42:00Z,27.7300,-91.1090,34.1,140.0,33.9,16.0,'11111222,11111222,11111222' 
ADCP,ioos:station:wmo:42388:1,2019-02-05T20:52:00Z,27.7300,-91.1090,34.0,188.0,39.3,7.6,'11111222,11111222,11111222' 
ADCP,ioos:station:wmo:42388:1,2019-02-05T21:02:00Z,27.7300,-91.1090,33.9,208.0,105.8,-1.1,'11111222,11111222,11144222' 
ADCP,ioos:station:wmo:42388:1,2019-02-05T21:12:00Z,27.7300,-91.1090,33.9,182.0,17.0,3.2,'11111222,11111222,11111222' 
ADCP,ioos:station:wmo:42388:1,2019-02-05T21:22:00Z,27.7300,-91.1090,33.9,201.0,46.1,2.9,'11111222,11111222,11111222' 
ADCP,ioos:station:wmo:42388:1,2019-02-05T21:32:00Z,27.7300,-91.1090,34.0,200.0,97.2,10.9,'11111222,11111222,11111222' 
ADCP,ioos:station:wmo:42388:1,2019-02-05T21:42:00Z,27.7300,-91.1090,34.0,194.0,54.1,8.3,'11111222,11111222,11111222' 
ADCP,ioos:station:wmo:42388:1,2019-02-05T21:52:00Z,27.7300,-91.1090,33.8,188.0,38.3,6.6,'11111222,11111222,11111222' 
ADCP,ioos:station:wmo:42388:1,2019-02-05T22:02:00Z,27.7300,-91.1090,33.9,184.0,41.5,8.4,'11111222,11111222,11111222' 
ADCP,ioos:station:wmo:42388:1,2019-02-05T22:12:00Z,27.7300,-91.1090,34.0,175.0,13.0,3.4,'11111222,11111222,11111222' 
ADCP,ioos:station:wmo:42388:1,2019-02-05T22:22:00Z,27.7300,-91.1090,33.9,174.0,20.1,5.3,'11111222,11111222,11111222' 
ADCP,ioos:station:wmo:42388:1,2019-02-05T22:32:00Z,27.7300,-91.1090,34.1,174.0,24.7,6.7,'11111222,11111222,11111222' 
ADCP,ioos:station:wmo:42388:1,2019-02-05T22:42:00Z,27.7300,-91.1090,33.9,176.0,34.8,8.7,'11111222,11111222,11111222' 
ADCP,ioos:station:wmo:42388:1,2019-02-05T22:52:00Z,27.7300,-91.1090,34.2,174.0,51.9,14.1,'11111222,11111222,11111222' 
ADCP,ioos:station:wmo:42388:1,2019-02-05T23:02:00Z,27.7300,-91.1090,34.5,174.0,74.2,19.9,'11111222,11111222,11111222' 
ADCP,ioos:station:wmo:42388:1,2019-02-05T23:12:00Z,27.7300,-91.1090,34.3,177.0,73.7,18.7,'11111222,11111222,11111222' 
ADCP,ioos:station:wmo:42388:1,2019-02-05T23:22:00Z,27.7300,-91.1090,34.4,175.0,49.0,13.0,'11111222,11111222,11111222' 
ADCP,ioos:station:wmo:42388:1,2019-02-05T23:32:00Z,27.7300,-91.1090,34.6,174.0,61.0,16.8,'11111222,11111222,11111222' 
ADCP,ioos:station:wmo:42388:1,2019-02-05T23:42:00Z,27.7300,-91.1090,34.5,174.0,40.5,11.0,'11111222,11111222,11111222' 
ADCP,ioos:station:wmo:42388:1,2019-02-05T23:53:00Z,27.7300,-91.1090,34.7,176.0,53.5,14.0,'11111222,11111222,11111222' 
ADCP,ioos:station:wmo:42388:1,2019-02-06T00:03:00Z,27.7300,-91.1090,34.6,177.0,34.7,9.0,'11111222,11111222,11111222' 
ADCP,ioos:station:wmo:42388:1,2019-02-06T00:13:00Z,27.7300,-91.1090,34.6,175.0,61.8,16.4,'11111222,11111222,11111222' 
ADCP,ioos:station:wmo:42388:1,2019-02-06T00:23:00Z,27.7300,-91.1090,34.6,174.0,37.9,9.9,'11111222,11111222,11111222' 
ADCP,ioos:station:wmo:42388:1,2019-02-06T00:33:00Z,27.7300,-91.1090,34.6,176.0,19.3,5.1,'11111222,11111222,11111222' 
ADCP,ioos:station:wmo:42388:1,2019-02-06T00:43:00Z,27.7300,-91.1090,34.5,174.0,61.0,16.9,'11111222,11111222,11111222' 
ADCP,ioos:station:wmo:42388:1,2019-02-06T00:53:00Z,27.7300,-91.1090,34.6,174.0,55.2,15.1,'11111222,11111222,11111222' 
ADCP,ioos:station:wmo:42388:1,2019-02-06T01:03:00Z,27.7300,-91.1090,34.5,174.0,50.9,13.8,'11111222,11111222,11111222' 
ADCP,ioos:station:wmo:42388:1,2019-02-06T01:13:00Z,27.7300,-91.1090,34.4,174.0,44.5,12.0,'11111222,11111222,11111222' 
ADCP,ioos:station:wmo:42388:1,2019-02-06T01:23:00Z,27.7300,-91.1090,34.4,174.0,47.0,12.8,'11111222,11111222,11111222' 
ADCP,ioos:station:wmo:42388:1,2019-02-06T01:33:00Z,27.7300,-91.1090,34.4,178.0,69.0,17.2,'11111222,11111222,11111222' 
ADCP,ioos:station:wmo:42388:1,2019-02-06T01:43:00Z,27.7300,-91.1090,34.7,176.0,86.1,22.2,'11111222,11111222,11111222' 
ADCP,ioos:station:wmo:42388:1,2019-02-06T01:53:00Z,27.7300,-91.1090,34.6,178.0,82.9,20.4,'11111222,11111222,11111222' 
ADCP,ioos:station:wmo:42388:1,2019-02-06T02:03:00Z,27.7300,-91.1090,34.5,179.0,86.8,20.8,'11111222,11111222,11111222' 
ADCP,ioos:station:wmo:42388:1,2019-02-06T02:13:00Z,27.7300,-91.1090,34.3,177.0,78.2,20.0,'11111222,11111222,11111222' 
ADCP,ioos:station:wmo:42388:1,2019-02-06T02:23:00Z,27.7300,-91.1090,34.2,177.0,98.1,24.3,'11111222,11111222,11111222' 
ADCP,ioos:station:wmo:42388:1,2019-02-06T02:33:00Z,27.7300,-91.1090,34.4,179.0,89.9,22.7,'11111222,11111222,11111222' 
ADCP,ioos:station:wmo:42388:1,2019-02-06T02:43:00Z,27.7300,-91.1090,34.4,180.0,104.5,25.2,'11111222,11111222,11111222' 
ADCP,ioos:station:wmo:42388:1,2019-02-06T02:53:00Z,27.7300,-91.1090,34.6,182.0,96.1,22.4,'11111222,11111222,11111222' 
ADCP,ioos:station:wmo:42388:1,2019-02-06T03:03:00Z,27.7300,-91.1090,34.3,185.0,91.7,17.8,'11111222,11111222,11111222' 
ADCP,ioos:station:wmo:42388:1,2019-02-06T03:13:00Z,27.7300,-91.1090,34.2,181.0,118.2,26.8,'11111222,11111222,11111222' 
ADCP,ioos:station:wmo:42388:1,2019-02-06T03:23:00Z,27.7300,-91.1090,34.4,181.0,109.2,24.8,'11111222,11111222,11111222' 
ADCP,ioos:station:wmo:42388:1,2019-02-06T03:33:00Z,27.7300,-91.1090,34.5,179.0,127.2,29.5,'11111222,11111222,11111222' 
ADCP,ioos:station:wmo:42388:1,2019-02-06T03:43:00Z,27.7300,-91.1090,34.3,183.0,151.6,32.8,'11133222,11111222,11111222' 
ADCP,ioos:station:wmo:42388:1,2019-02-06T03:53:00Z,27.7300,-91.1090,34.3,182.0,134.2,29.5,'11111222,11111222,11111222' 
ADCP,ioos:station:wmo:42388:1,2019-02-06T04:03:00Z,27.7300,-91.1090,34.4,185.0,93.2,19.6,'11111222,11111222,11111222' 
ADCP,ioos:station:wmo:42388:1,2019-02-06T04:13:00Z,27.7300,-91.1090,34.3,183.0,139.0,29.9,'11111222,11111222,11111222' 
ADCP,ioos:station:wmo:42388:1,2019-02-06T04:23:00Z,27.7300,-91.1090,34.3,183.0,102.5,20.9,'11111222,11111222,11111222' 
ADCP,ioos:station:wmo:42388:1,2019-02-06T04:33:00Z,27.7300,-91.1090,34.4,180.0,71.8,15.9,'11111222,11111222,11111222' 
ADCP,ioos:station:wmo:42388:1,2019-02-06T04:43:00Z,27.7300,-91.1090,34.2,180.0,84.4,19.4,'11111222,11111222,11111222' 
ADCP,ioos:station:wmo:42388:1,2019-02-06T04:53:00Z,27.7300,-91.1090,34.1,178.0,120.2,28.7,'11111222,11111222,11111222' 
ADCP,ioos:station:wmo:42388:1,2019-02-06T05:03:00Z,27.7300,-91.1090,34.3,181.0,112.6,25.4,'11111222,11111222,11111222' 
ADCP,ioos:station:wmo:42388:1,2019-02-06T05:13:00Z,27.7300,-91.1090,34.1,182.0,108.5,23.2,'11111222,11111222,11111222' 
ADCP,ioos:station:wmo:42388:1,2019-02-06T05:23:00Z,27.7300,-91.1090,34.1,181.0,147.3,31.8,'11111222,11111222,11111222' 
ADCP,ioos:station:wmo:42388:1,2019-02-06T05:33:00Z,27.7300,-91.1090,34.0,183.0,90.3,20.7,'11111222,11111222,11111222' 
ADCP,ioos:station:wmo:42388:1,2019-02-06T05:43:00Z,27.7300,-91.1090,34.0,186.0,74.8,14.7,'11111222,11111222,11111222' 
ADCP,ioos:station:wmo:42388:1,2019-02-06T05:53:00Z,27.7300,-91.1090,34.1,202.0,108.2,14.9,'11111222,11111222,11111222' 
ADCP,ioos:station:wmo:42388:1,2019-02-06T06:03:00Z,27.7300,-91.1090,34.1,202.0,112.3,14.7,'11111222,11111222,11111222' 
ADCP,ioos:station:wmo:42388:1,2019-02-06T06:13:00Z,27.7300,-91.1090,34.1,198.0,92.7,12.5,'11111222,11111222,11111222' 
ADCP,ioos:station:wmo:42388:1,2019-02-06T06:23:00Z,27.7300,-91.1090,34.0,188.0,60.4,12.6,'11111222,11111222,11111222' 
ADCP,ioos:station:wmo:42388:1,2019-02-06T06:33:00Z,27.7300,-91.1090,34.1,182.0,51.4,11.1,'11111222,11111222,11111222' 
ADCP,ioos:station:wmo:42388:1,2019-02-06T06:43:00Z,27.7300,-91.1090,34.1,180.0,63.5,14.6,'11111222,11111222,11111222' 
ADCP,ioos:station:wmo:42388:1,2019-02-06T06:53:00Z,27.7300,-91.1090,34.1,182.0,106.0,22.5,'11111222,11111222,11111222' 
ADCP,ioos:station:wmo:42388:1,2019-02-06T07:03:00Z,27.7300,-91.1090,34.1,180.0,92.3,21.0,'11111222,11111222,11111222' 
ADCP,ioos:station:wmo:42388:1,2019-02-06T07:13:00Z,27.7300,-91.1090,33.9,183.0,75.1,16.1,'11111222,11111222,11111222' 
ADCP,ioos:station:wmo:42388:1,2019-02-06T07:23:00Z,27.7300,-91.1090,34.0,192.0,56.5,8.2,'11111222,11111222,11111222' 
ADCP,ioos:station:wmo:42388:1,2019-02-06T07:33:00Z,27.7300,-91.1090,34.1,185.0,74.7,14.0,'11111222,11111222,11111222' 
ADCP,ioos:station:wmo:42388:1,2019-02-06T07:43:00Z,27.7300,-91.1090,34.1,185.0,57.0,9.8,'11111222,11111222,11111222' 
ADCP,ioos:station:wmo:42388:1,2019-02-06T07:53:00Z,27.7300,-91.1090,33.9,196.0,61.9,7.1,'11111222,11111222,11111222' 
ADCP,ioos:station:wmo:42388:1,2019-02-06T08:03:00Z,27.7300,-91.1090,34.0,203.0,18.0,1.9,'11111222,11111222,11111222' 
ADCP,ioos:station:wmo:42388:1,2019-02-06T08:13:00Z,27.7300,-91.1090,34.1,26.0,38.4,-0.3,'11111222,11111222,11144222' 
ADCP,ioos:station:wmo:42388:1,2019-02-06T08:23:00Z,27.7300,-91.1090,34.0,29.0,41.5,1.2,'11111222,11111222,11111222' 
ADCP,ioos:station:wmo:42388:1,2019-02-06T08:33:00Z,27.7300,-91.1090,34.0,19.0,61.9,-6.4,'11111222,11111222,11144222' 
ADCP,ioos:station:wmo:42388:1,2019-02-06T08:43:00Z,27.7300,-91.1090,34.1,23.0,66.5,-4.7,'11111222,11111222,11144222' 
ADCP,ioos:station:wmo:42388:1,2019-02-06T08:53:00Z,27.7300,-91.1090,34.1,26.0,81.6,-2.0,'11111222,11111222,11144222' 
ADCP,ioos:station:wmo:42388:1,2019-02-06T09:03:00Z,27.7300,-91.1090,34.0,19.0,58.3,-7.6,'11111222,11111222,11144222' 
ADCP,ioos:station:wmo:42388:1,2019-02-06T09:13:00Z,27.7300,-91.1090,34.1,27.0,55.3,-3.1,'11111222,11111222,11144222' 
ADCP,ioos:station:wmo:42388:1,2019-02-06T09:23:00Z,27.7300,-91.1090,34.1,26.0,70.0,-5.1,'11111222,11111222,11144222' 
ADCP,ioos:station:wmo:42388:1,2019-02-06T09:33:00Z,27.7300,-91.1090,34.0,23.0,35.2,-2.0,'11111222,11111222,11144222' 
ADCP,ioos:station:wmo:42388:1,2019-02-06T09:43:00Z,27.7300,-91.1090,34.0,22.0,27.9,-2.4,'11111222,11111222,11144222' 
ADCP,ioos:station:wmo:42388:1,2019-02-06T09:53:00Z,27.7300,-91.1090,34.1,23.0,29.2,-2.3,'11111222,11111222,11144222' 
ADCP,ioos:station:wmo:42388:1,2019-02-06T10:03:00Z,27.7300,-91.1090,34.1,29.0,29.7,-2.4,'11111222,11111222,11144222' 
ADCP,ioos:station:wmo:42388:1,2019-02-06T10:13:00Z,27.7300,-91.1090,34.1,29.0,30.3,-2.0,'11111222,11111222,11144222' 
ADCP,ioos:station:wmo:42388:1,2019-02-06T10:23:00Z,27.7300,-91.1090,34.0,25.0,19.9,-1.5,'11111222,11111222,11144222' 
ADCP,ioos:station:wmo:42388:1,2019-02-06T10:33:00Z,27.7300,-91.1090,34.1,30.0,30.5,-1.5,'11111222,11111222,11144222' 
ADCP,ioos:station:wmo:42388:1,2019-02-06T10:43:00Z,27.7300,-91.1090,34.0,25.0,16.9,-1.1,'11111222,11111222,11144222' 
ADCP,ioos:station:wmo:42388:1,2019-02-06T10:53:00Z,27.7300,-91.1090,34.2,30.0,25.0,-1.1,'11111222,11111222,11144222' 
ADCP,ioos:station:wmo:42388:1,2019-02-06T11:03:00Z,27.7300,-91.1090,34.1,14.0,25.4,-4.3,'11111222,11111222,11144222' 
ADCP,ioos:station:wmo:42388:1,2019-02-06T11:13:00Z,27.7300,-91.1090,34.1,24.0,52.9,-4.7,'11111222,11111222,11144222' 
ADCP,ioos:station:wmo:42388:1,2019-02-06T11:23:00Z,27.7300,-91.1090,34.1,19.0,84.9,-11.0,'11111222,11111222,11144222' 
ADCP,ioos:station:wmo:42388:1,2019-02-06T11:33:00Z,27.7300,-91.1090,34.1,30.0,85.4,-7.6,'11111222,11111222,11144222' 
ADCP,ioos:station:wmo:42388:1,2019-02-06T11:43:00Z,27.7300,-91.1090,34.0,24.0,68.0,-7.4,'11111222,11111222,11144222' 
ADCP,ioos:station:wmo:42388:1,2019-02-06T11:53:00Z,27.7300,-91.1090,34.2,34.0,42.7,-0.9,'11111222,11111222,11144222' 
ADCP,ioos:station:wmo:42388:1,2019-02-06T12:03:00Z,27.7300,-91.1090,34.1,24.0,97.2,-7.9,'11111222,11111222,11144222' 
ADCP,ioos:station:wmo:42388:1,2019-02-06T12:13:00Z,27.7300,-91.1090,34.0,30.0,99.6,-1.4,'11111222,11111222,11144222' 
ADCP,ioos:station:wmo:42388:1,2019-02-06T12:23:00Z,27.7300,-91.1090,33.9,30.0,107.7,0.3,'11111222,11111222,11111222' 
ADCP,ioos:station:wmo:42388:1,2019-02-06T12:33:00Z,27.7300,-91.1090,34.1,25.0,52.8,-2.1,'11111222,11111222,11144222' 
ADCP,ioos:station:wmo:42388:1,2019-02-06T12:43:00Z,27.7300,-91.1090,34.1,32.0,22.0,-4.8,'11111222,11111222,11144222' 
ADCP,ioos:station:wmo:42388:1,2019-02-06T12:53:00Z,27.7300,-91.1090,34.1,126.0,5.3,3.3,'11133222,11111222,11111222' 
ADCP,ioos:station:wmo:42388:1,2019-02-06T13:03:00Z,27.7300,-91.1090,34.0,83.0,2.4,0.0,'11133222,11111222,11111222' 
ADCP,ioos:station:wmo:42388:1,2019-02-06T13:13:00Z,27.7300,-91.1090,34.1,28.0,35.7,-0.5,'11111222,11111222,11144222' 
ADCP,ioos:station:wmo:42388:1,2019-02-06T13:23:00Z,27.7300,-91.1090,34.1,32.0,50.9,-1.1,'11111222,11111222,11144222' 
ADCP,ioos:station:wmo:42388:1,2019-02-06T13:33:00Z,27.7300,-91.1090,34.2,34.0,44.8,-1.0,'11111222,11111222,11144222' 
ADCP,ioos:station:wmo:42388:1,2019-02-06T13:43:00Z,27.7300,-91.1090,34.2,32.0,24.7,-1.7,'11111222,11111222,11144222' 
ADCP,ioos:station:wmo:42388:1,2019-02-06T13:53:00Z,27.7300,-91.1090,34.1,34.0,25.0,-0.9,'11111222,11111222,11144222' 
ADCP,ioos:station:wmo:42388:1,2019-02-06T14:03:00Z,27.7300,-91.1090,34.2,36.0,117.2,-5.5,'11111222,11111222,11144222' 
ADCP,ioos:station:wmo:42388:1,2019-02-06T14:13:00Z,27.7300,-91.1090,34.0,37.0,119.7,-4.0,'11111222,11111222,11144222' 
ADCP,ioos:station:wmo:42388:1,2019-02-06T14:23:00Z,27.7300,-91.1090,34.1,37.0,106.8,1.1,'11111222,11111222,11111222' 
ADCP,ioos:station:wmo:42388:1,2019-02-06T14:33:00Z,27.7300,-91.1090,34.2,37.0,81.7,0.0,'11111222,11111222,11111222' 
ADCP,ioos:station:wmo:42388:1,2019-02-06T14:43:00Z,27.7300,-91.1090,34.3,37.0,74.2,-0.2,'11111222,11111222,11144222' 
ADCP,ioos:station:wmo:42388:1,2019-02-06T14:53:00Z,27.7300,-91.1090,34.1,37.0,86.4,-0.3,'11111222,11111222,11144222' 
ADCP,ioos:station:wmo:42388:1,2019-02-06T15:03:00Z,27.7300,-91.1090,34.2,37.0,56.9,0.0,'11111222,11111222,11111222' 
ADCP,ioos:station:wmo:42388:1,2019-02-06T15:13:00Z,27.7300,-91.1090,34.0,38.0,52.0,0.8,'11111222,11111222,11111222' 
ADCP,ioos:station:wmo:42388:1,2019-02-06T15:23:00Z,27.7300,-91.1090,34.1,216.0,29.4,0.3,'11111222,11111222,11111222' 
ADCP,ioos:station:wmo:42388:1,2019-02-06T15:33:00Z,27.7300,-91.1090,34.0,215.0,54.2,-3.4,'11111222,11111222,11144222' 
ADCP,ioos:station:wmo:42388:1,2019-02-06T15:43:00Z,27.7300,-91.1090,34.2,216.0,176.7,-8.3,'11133222,11111222,11144222' 
ADCP,ioos:station:wmo:42388:1,2019-02-06T15:53:00Z,27.7300,-91.1090,34.0,214.0,221.9,-7.4,'11144222,11111222,11144222' 
ADCP,ioos:station:wmo:42388:1,2019-02-06T16:03:00Z,27.7300,-91.1090,34.3,216.0,178.8,-1.1,'11133222,11111222,11144222' 
ADCP,ioos:station:wmo:42388:1,2019-02-06T16:13:00Z,27.7300,-91.1090,34.2,216.0,180.4,-4.0,'11144222,11111222,11144222' 
ADCP,ioos:station:wmo:42388:1,2019-02-06T16:23:00Z,27.7300,-91.1090,34.1,215.0,180.5,-4.4,'11144222,11111222,11144222' 
ADCP,ioos:station:wmo:42388:1,2019-02-06T16:33:00Z,27.7300,-91.1090,34.1,215.0,198.9,-4.9,'11144222,11111222,11144222' 
ADCP,ioos:station:wmo:42388:1,2019-02-06T16:43:00Z,27.7300,-91.1090,34.1,215.0,222.2,-7.5,'11144222,11111222,11144222' 
ADCP,ioos:station:wmo:42388:1,2019-02-06T16:53:00Z,27.7300,-91.1090,34.1,216.0,208.2,-0.8,'11144222,11111222,11144222' 
ADCP,ioos:station:wmo:42388:1,2019-02-06T17:03:00Z,27.7300,-91.1090,34.1,216.0,191.0,0.9,'11144222,11111222,11111222' 
ADCP,ioos:station:wmo:42388:1,2019-02-06T17:13:00Z,27.7300,-91.1090,34.2,215.0,174.5,-2.2,'11133222,11111222,11144222' 
ADCP,ioos:station:wmo:42388:1,2019-02-06T17:23:00Z,27.7300,-91.1090,34.1,215.0,224.7,-1.2,'11144222,11111222,11144222' 
ADCP,ioos:station:wmo:42388:1,2019-02-06T17:34:00Z,27.7300,-91.1090,34.1,215.0,204.7,-1.9,'11144222,11111222,11144222' 
ADCP,ioos:station:wmo:42388:1,2019-02-06T17:44:00Z,27.7300,-91.1090,34.1,215.0,226.1,-5.0,'11144222,11111222,11144222' 
ADCP,ioos:station:wmo:42388:1,2019-02-06T17:54:00Z,27.7300,-91.1090,34.1,216.0,229.5,-7.1,'11144222,11111222,11144222' 
ADCP,ioos:station:wmo:42388:1,2019-02-06T18:04:00Z,27.7300,-91.1090,34.2,214.0,200.4,1.9,'11144222,11111222,11111222' 
ADCP,ioos:station:wmo:42388:1,2019-02-06T18:14:00Z,27.7300,-91.1090,34.2,214.0,223.1,0.9,'11144222,11111222,11111222' 
ADCP,ioos:station:wmo:42388:1,2019-02-06T18:24:00Z,27.7300,-91.1090,34.3,213.0,214.6,5.3,'11144222,11111222,11111222' 
ADCP,ioos:station:wmo:42388:1,2019-02-06T18:34:00Z,27.7300,-91.1090,34.3,214.0,236.7,-1.7,'11144222,11111222,11144222' 
ADCP,ioos:station:wmo:42388:1,2019-02-06T18:44:00Z,27.7300,-91.1090,34.4,214.0,226.7,2.8,'11144222,11111222,11111222' 
ADCP,ioos:station:wmo:42388:1,2019-02-06T18:54:00Z,27.7300,-91.1090,34.3,210.0,199.0,6.5,'11144222,11111222,11111222' 
ADCP,ioos:station:wmo:42388:1,2019-02-06T19:04:00Z,27.7300,-91.1090,34.3,213.0,226.6,3.4,'11144222,11111222,11111222' 
ADCP,ioos:station:wmo:42388:1,2019-02-06T19:14:00Z,27.7300,-91.1090,34.4,210.0,239.3,6.4,'11144222,11111222,11111222' 
ADCP,ioos:station:wmo:42388:1,2019-02-06T19:24:00Z,27.7300,-91.1090,34.2,208.0,214.8,15.7,'11144222,11111222,11111222' 
ADCP,ioos:station:wmo:42388:1,2019-02-06T19:34:00Z,27.7300,-91.1090,34.3,201.0,176.9,19.5,'11133222,11111222,11111222' 
ADCP,ioos:station:wmo:42388:1,2019-02-06T19:44:00Z,27.7300,-91.1090,34.2,191.0,160.3,34.5,'11133222,11111222,11111222' 
ADCP,ioos:station:wmo:42388:1,2019-02-06T19:54:00Z,27.7300,-91.1090,34.3,184.0,148.5,42.9,'11111222,11111222,11111222' 
ADCP,ioos:station:wmo:42388:1,2019-02-06T20:04:00Z,27.7300,-91.1090,34.3,181.0,156.3,55.6,'11133222,11111222,11133222' 
ADCP,ioos:station:wmo:42388:1,2019-02-06T20:14:00Z,27.7300,-91.1090,34.1,177.0,145.2,63.3,'11111222,11111222,11133222' 
ADCP,ioos:station:wmo:42388:1,2019-02-06T20:14:00Z,27.7300,-91.1090,50.1,190.0,75.8,83.8,'11111222,11111222,11133222' 
ADCP,ioos:station:wmo:42388:1,2019-02-06T20:24:00Z,27.7300,-91.1090,34.1,182.0,123.9,63.3,'11111222,11111222,11133222' 
ADCP,ioos:station:wmo:42388:1,2019-02-06T20:24:00Z,27.7300,-91.1090,50.1,194.0,62.8,91.2,'11111222,11111222,11133222' 
ADCP,ioos:station:wmo:42388:1,2019-02-06T20:34:00Z,27.7300,-91.1090,34.2,173.0,145.0,69.0,'11111222,11111222,11133222' 
ADCP,ioos:station:wmo:42388:1,2019-02-06T20:34:00Z,27.7300,-91.1090,50.2,172.0,78.4,93.8,'11111222,11111222,11133222' 
ADCP,ioos:station:wmo:42388:1,2019-02-06T20:44:00Z,27.7300,-91.1090,34.3,174.0,151.9,66.3,'11133222,11111222,11133222' 
ADCP,ioos:station:wmo:42388:1,2019-02-06T20:44:00Z,27.7300,-91.1090,50.3,197.0,56.2,94.1,'11111222,11111222,11133222' 